Regional Weather Roundup
Issued by NWS

Home | Current Version | Previous Version | Graphics & Text | Print | Product List | Glossary On
Versions: 1 2 3 4 5 6 7 8 9 10 11 12 13 14 15 16 17 18 19 20 21 22 23 24 25 26 27 28 29 30 31 32 33 34 35 36 37 38 39 40 41 42 43 44 45 46 47 48 49 50
000
ASUS43 KLOT 190703
RWRIL

ILLINOIS REGIONAL WEATHER ROUNDUP
NATIONAL WEATHER SERVICE CHICAGO/ROMEOVILLE IL
100 AM CST FRI JAN 19 2018

NOTE: "FAIR" INDICATES FEW OR NO CLOUDS BELOW 12,000 FEET WITH NO
SIGNIFICANT WEATHER AND/OR OBSTRUCTIONS TO VISIBILITY.

* THESE STATIONS ARE NOT UNDER NWS QUALITY CONTROL. THEY ALSO MAY NOT
  REPORT WEATHER SUCH AS PRECIPITATION OR FOG.

ILZ001-002-007-009-015-016-024-190800-
NORTHWEST ILLINOIS

CITY           SKY/WX    TMP DP  RH WIND       PRES   REMARKS
MOLINE         FAIR      31  20  63 SW8       29.94F WCI  23
STERLING*      FAIR      26  20  77 VRB3      29.94F
SAVANNA*       FAIR      27  19  73 SW6       29.93F WCI  20
$$

ILZ003-004-008-010-011-017-018-190800-
NORTH CENTRAL ILLINOIS

CITY           SKY/WX    TMP DP  RH WIND       PRES   REMARKS
ROCKFORD       FAIR      30  19  63 SW13      29.93F WCI  20
FREEPORT*      FAIR      25  19  77 SW15      29.92F WCI  13
ROCHELLE*      FAIR      28  21  74 SW14      29.94F WCI  17
DE KALB*       FAIR      29  20  70 SW14      29.94F WCI  18
PERU*          FAIR      31  19  61 SW15      29.97F WCI  20
$$

ILZ005-006-012>014-019>023-190800-
NORTHEAST ILLINOIS

CITY           SKY/WX    TMP DP  RH WIND       PRES   REMARKS
CHICAGO-OHARE  FAIR      30  18  60 SW10      29.93F WCI  21
CHICAGO-MIDWAY FAIR      29  20  69 SW14      29.95F WCI  18
AURORA         FAIR      27  17  66 S10       29.95F WCI  17
LANSING*       FAIR      24  20  84 SW12      29.99F WCI  13
JOLIET*        FAIR      27  20  75 S7        29.99F WCI  20
WAUKEGAN       FAIR      29  19  66 SW14G23   29.88F WCI  18
DUPAGE AIRPORT FAIR      26  19  74 S9        29.94F WCI  17
KANKAKEE*      FAIR     N/A N/A N/A SW14G20   30.03F
WHEELING       FAIR      30  19  63 SW10      29.94F WCI  21
MORRIS*        FAIR      24  18  75 S9        29.98F WCI  15
ROMEOVILLE*    FAIR      27  20  76 SW12      29.97F WCI  16
NORTHERLY ISL    N/A     30  19  63 SW6         N/A  WCI  24
$$

LMZ740>746-190800-
SOUTHERN LAKE MICHIGAN

STATION/POSITION SKY/WX   TEMP    WIND        PRES    VSBY  WAVE
                          AIR SEA DIR/SP/G                  HT/PER
                          (F)     (DEG/KT/KT) (MB)    (MI)  (FT/S)
HARRISON CRIB              35     220/ 24/ 29   N/A
BURNHAM HARBOR             29     210/  5/ 14   N/A
CALUMET HARBOR             27     210/ 14/ 18 1014.1F
BURNS HARBOR               28     200/ 14/ 18 1015.9S
MICHIGAN CITY              29     190/ 15/ 17   N/A
$$

ILZ025>027-034>036-040-047-049-050-058-095>099-190800-
WEST-CENTRAL ILLINOIS

CITY           SKY/WX    TMP DP  RH WIND       PRES   REMARKS
QUINCY         CLOUDY    32  20  61 SW13      30.02F WCI  22
GALESBURG*     FAIR      29  22  75 S13       29.98F WCI  19
JACKSONVILLE*  CLOUDY    32  18  55 S12       30.06F WCI  23
PITTSFIELD*    CLOUDY    34  19  54 SW10      30.06F WCI  26
$$

ILZ028>032-037-038-041>044-048-051>054-059>061-190800-
CENTRAL ILLINOIS

CITY           SKY/WX    TMP DP  RH WIND       PRES   REMARKS
PONTIAC        FAIR      29  22  75 SW15      30.02F WCI  18
BLOOMINGTON    FAIR      26  20  77 SW17      30.03F WCI  13
DECATUR        FAIR      26  20  77 SW16      30.08F WCI  14
PEORIA         FAIR      28  19  69 S10       30.02F WCI  19
LACON*         FAIR      30  19  64 SW8       29.99F WCI  22
LINCOLN*       FAIR      27  22  82 S6        30.06F WCI  20
SPRINGFIELD    FAIR      31  20  63 S12       30.07F WCI  22
TAYLORVILLE    FAIR      25  19  75 S14       30.09F WCI  14
$$

ILZ033-039-045-046-055>057-062-063-190800-
EAST-CENTRAL ILLINOIS

CITY           SKY/WX    TMP DP  RH WIND       PRES   REMARKS
CHAMPAIGN      FAIR      20  15  81 S14       30.07F WCI   7
DANVILLE*      FAIR      22  15  72 SW16      30.06F WCI   9
RANTOUL*       FAIR      26  20  76 SW12      30.06F WCI  16
MATTOON        FAIR      24  17  74 S12       30.11F WCI  13
PARIS*         FAIR      24  17  75 S17       30.12F WCI  10
$$

ILZ079-100>102-190800-
SOUTHWEST ILLINOIS

CITY           SKY/WX    TMP DP  RH WIND       PRES   REMARKS
ALTON          CLOUDY    28  20  72 S10       30.12F WCI  18
BELLEVILLE     FAIR      26  18  70 SW7       30.14F WCI  18
CAHOKIA*       FAIR      26  16  65 S7        30.14F WCI  18
SPARTA*        FAIR      26  20  78 S8        30.19F WCI  17
$$

ILZ064>066-069>071-074>076-080>082-084>086-088>090-092>094-190800-
SOUTH-CENTRAL ILLINOIS

CITY           SKY/WX    TMP DP  RH WIND       PRES   REMARKS
CARBONDALE     FAIR      24  17  74 SW7       30.23S WCI  16
CAIRO*         FAIR      22  15  75 S6        30.27F WCI  14
EFFINGHAM*     FAIR      26  18  74 S7        30.17F WCI  18
MARION         FAIR      26  15  65 SW10      30.24R WCI  15
MT. VERNON     FAIR      24  18  77 SW12      30.20S WCI  13
CENTRALIA*     FAIR      25  20  81 S10       30.17F WCI  15
SALEM*         FAIR      27  19  71 S10       30.16F WCI  17
METROPOLIS*    FAIR      24  14  66 SW7       30.28F WCI  16
$$

ILZ067-068-072-073-078-083-087-091-190800-
SOUTHEAST ILLINOIS

CITY           SKY/WX    TMP DP  RH WIND       PRES   REMARKS
LAWRENCEVILLE  FAIR      19  12  74 S9        30.21S WCI   8
FLORA*         FAIR      24  17  74 S13       30.19F WCI  13
FAIRFIELD*     FAIR      20  13  75 S5        30.20F WCI  13
HARRISBURG*    FAIR      24  15  70 S7        30.24F WCI  16
ROBINSON*      FAIR      22  13  69 S8        30.19F WCI  13
CARMI*         FAIR      24  15  67 S9        30.22F WCI  15
$$

ABBREVIATIONS USED IN REMARKS
   TC - TEMPERATURE IN CELSIUS
  WCI - WIND CHILL INDEX
   HX - HEAT INDEX
  VSB - VISIBILITY
$$





USA.gov is the U.S. government's official web portal to all federal, state and local government web resources and services.